Location: Cahas Mountain Overlook
(37.0833°N, 80.1000°W)
Time: 22:37:35
(UTC-05:00)

S-56A Canister/Altair - Visible Passes

Search period start: 22 January 2022 00:00
Search period end: 01 February 2022 00:00
Orbit: 634 x 2499 km, 38.9° (Epoch: 22 January)

Date Brightness Start Highest point End Pass type
(mag) Time Alt. Az. Time Alt. Az. Time Alt. Az.
22 Jan 10.1 06:59:39 10° S 07:02:19 15° SE 07:05:12 10° ESE visible
23 Jan 10.2 06:28:23 10° SSE 06:29:54 11° SE 06:31:29 10° ESE visible
26 Jan 8.8 06:51:18 10° SW 06:55:19 35° SSE 06:59:48 10° E visible
27 Jan 9.0 06:19:03 10° SSW 06:22:55 29° SSE 06:26:57 10° E visible
28 Jan 9.1 05:46:49 10° SSW 05:50:30 24° SSE 05:54:09 10° E visible
29 Jan 9.3 05:15:49 15° S 05:18:03 20° SSE 05:21:21 10° E visible
30 Jan 9.5 04:45:27 17° SSE 04:45:36 17° SSE 04:48:33 10° ESE visible
30 Jan 7.4 06:44:20 10° WSW 06:48:46 71° SSE 06:53:29 10° ENE visible
31 Jan 10.0 04:14:58 12° ESE 04:14:58 12° ESE 04:15:43 10° ESE visible
31 Jan 7.5 06:12:26 14° WSW 06:16:20 62° SSE 06:20:49 10° ENE visible
